EW0747 Ljugarn SE current weather conditions

sailwx.info

Wind from 114 at 6 knots gusting 18

Air temperature 8.3° C
Dewpoint 7.3° C

Last reported at 2019-Dec-06 13:45 UTC.
Time now 2019-Dec-06 15:12 UTC

Location: N 57°20' E 018°43'.
View on Google Maps.

See reports from other nearby stations

  
Tides and Currents Weather Stations Pressure Air Temp Water Temp Dewpoint Dewpoint Depression Visibility Wind Speed Wind Dir Waves Ship Positions
date/time (UTC)wind fromknots sea level pressurealtimeterstation pressurevisibilityair tempwater tempwave heightnotes
2019-Dec-06 13:45 114 6 gusting 18 8.3
2019-Dec-06 13:31 177 6 gusting 16 8.3
2019-Dec-06 13:16 123 4 gusting 17 8.3
2019-Dec-06 12:45 157 6 gusting 21 8.3
2019-Dec-06 12:32 117 5 gusting 18 8.3
2019-Dec-06 12:16 111 6 gusting 19 8.3
2019-Dec-06 11:45 129 7 gusting 16 7.8
2019-Dec-06 11:32 121 6 gusting 20 7.8
2019-Dec-06 11:16 117 9 gusting 19 7.8
2019-Dec-06 10:46 119 8 gusting 20 7.8
2019-Dec-06 10:33 129 10 gusting 20 7.8
2019-Dec-06 10:16 136 6 gusting 18 7.8
2019-Dec-06 10:00 130 7 gusting 13 7.8
2019-Dec-06 09:46 137 3 gusting 17 7.8
2019-Dec-06 09:31 124 7 gusting 15 7.2
2019-Dec-06 09:16 136 8 gusting 17 7.2
2019-Dec-06 09:00 150 11 gusting 22 7.2
2019-Dec-06 08:45 129 7 gusting 19 6.7
2019-Dec-06 08:30 121 8 gusting 23 6.7
2019-Dec-06 08:17 163 8 gusting 20 6.7
2019-Dec-06 07:48 131 7 gusting 19 6.1
2019-Dec-06 07:31 132 9 gusting 19 6.1
2019-Dec-06 07:16 145 8 gusting 17 6.1
2019-Dec-06 06:45 117 7 gusting 24 5.6
2019-Dec-06 06:31 116 9 gusting 20 5.6
2019-Dec-06 06:15 110 9 gusting 22 5.6
2019-Dec-06 05:45 164 8 gusting 23 5.6
2019-Dec-06 05:32 109 9 gusting 23 5.6
2019-Dec-06 05:15 128 6 gusting 19 5.6
2019-Dec-06 04:45 130 8 gusting 18 6.1
2019-Dec-06 04:15 118 10 gusting 19 6.1
2019-Dec-06 03:46 147 10 gusting 17 5.6
2019-Dec-06 03:32 124 6 gusting 15 5.6
2019-Dec-06 03:16 136 6 gusting 13 5.6
2019-Dec-06 03:00 124 3 gusting 17 5.6
2019-Dec-06 02:46 117 7 gusting 22 5.6
2019-Dec-06 02:31 163 2 gusting 11 6.1
2019-Dec-06 02:16 148 6 gusting 13 6.1
2019-Dec-06 02:00 121 9 gusting 19 6.7
2019-Dec-06 01:46 126 6 gusting 20 6.7
2019-Dec-06 01:30 116 7 gusting 19 6.7
2019-Dec-06 01:18 119 7 gusting 22 6.7
2019-Dec-06 01:00 126 6 gusting 15 6.7
2019-Dec-06 00:46 130 7 gusting 20 6.7
2019-Dec-06 00:30 133 7 gusting 21 6.7
2019-Dec-06 00:16 170 6 gusting 17 6.7
2019-Dec-05 23:47 152 4 gusting 18 6.7
2019-Dec-05 23:30 144 5 gusting 16 6.7
2019-Dec-05 23:17 129 6 gusting 18 6.7
2019-Dec-05 22:45 166 5 gusting 16 6.7
2019-Dec-05 22:31 148 5 gusting 15 6.7
2019-Dec-05 22:15 135 6 gusting 16 6.7
2019-Dec-05 21:47 161 3 gusting 16 6.7
2019-Dec-05 21:30 180 5 gusting 13 6.7
2019-Dec-05 21:16 155 5 gusting 13 6.7
2019-Dec-05 20:46 139 5 gusting 18 6.7
2019-Dec-05 20:31 154 4 gusting 18 6.7
2019-Dec-05 20:15 150 2 gusting 16 6.7
2019-Dec-05 19:45 209 2 gusting 17 6.7
2019-Dec-05 19:31 179 8 gusting 19 6.7
2019-Dec-05 19:15 123 4 gusting 19 6.7
2019-Dec-05 18:45 133 5 gusting 17 6.7
2019-Dec-05 18:32 124 6 gusting 16 6.7
2019-Dec-05 18:15 132 6 gusting 17 6.7
2019-Dec-05 17:45 175 2 gusting 13 6.7
2019-Dec-05 17:31 160 5 gusting 16 6.7
2019-Dec-05 17:16 186 7 gusting 16 6.7
2019-Dec-05 16:47 128 5 gusting 13 6.1
2019-Dec-05 16:31 124 2 gusting 15 6.1
2019-Dec-05 16:16 178 3 gusting 13 6.1
2019-Dec-05 15:46 135 2 gusting 11 6.1
2019-Dec-05 15:33 144 2 gusting 13 6.1
2019-Dec-05 15:16 121 4 gusting 15 6.1
2019-Dec-05 14:46 124 5 gusting 15 6.1
2019-Dec-05 14:31 128 6 gusting 11 6.7
2019-Dec-05 14:17 134 2 gusting 13 6.7
2019-Dec-05 14:00 138 6 gusting 19 6.7
2019-Dec-05 13:46 150 3 gusting 12 6.7
2019-Dec-05 13:30 136 4 gusting 13 6.7
2019-Dec-05 13:17 157 5 gusting 17 6.7
2019-Dec-05 13:00 139 3 gusting 13 6.7
2019-Dec-05 12:46 115 4 gusting 18 6.7
2019-Dec-05 12:30 141 4 gusting 16 6.7
2019-Dec-05 12:16 136 6 gusting 19 7.2
2019-Dec-05 11:47 155 7 gusting 15 7.2
2019-Dec-05 11:45 132 7 gusting 15 7.2
2019-Dec-05 11:31 132 6 gusting 16 7.2
2019-Dec-05 11:16 143 5 gusting 16 7.2
2019-Dec-05 10:45 123 6 gusting 18 6.7
2019-Dec-05 10:31 140 6 gusting 19 6.7
2019-Dec-05 10:16 129 6 gusting 17 6.7
2019-Dec-05 09:45 178 6 gusting 16 6.7
2019-Dec-05 09:31 170 7 gusting 17 6.7
2019-Dec-05 09:16 115 6 gusting 17 6.1
2019-Dec-05 09:15 135 6 gusting 17 6.1
2019-Dec-05 08:45 134 6 gusting 13 6.1
2019-Dec-05 08:31 131 6 gusting 13 5.6
2019-Dec-05 08:15 128 6 gusting 15 5.6
2019-Dec-05 07:45 129 5 gusting 13 5.0
2019-Dec-05 07:31 138 2 gusting 13 5.0
2019-Dec-05 07:16 130 4 gusting 8 5.0
2019-Dec-05 06:45 132 4 gusting 10 5.0
2019-Dec-05 06:31 139 3 gusting 10 4.4
2019-Dec-05 06:16 146 2 gusting 9 4.4
2019-Dec-05 05:46 121 6 gusting 9 4.4
2019-Dec-05 05:31 136 1 gusting 7 4.4
2019-Dec-05 05:16 136 2 gusting 10 4.4
2019-Dec-05 05:00 138 3 gusting 10 4.4
2019-Dec-05 04:47 136 4 gusting 8 4.4
2019-Dec-05 04:32 136 3 gusting 10 4.4
2019-Dec-05 04:16 136 0 gusting 6 4.4
2019-Dec-05 04:00 150 0 gusting 7 4.4
2019-Dec-05 03:46 163 1 gusting 8 4.4
2019-Dec-05 03:30 137 3 gusting 11 4.4
2019-Dec-05 03:17 188 0 gusting 11 4.4
2019-Dec-05 03:00 161 0 gusting 11 4.4
2019-Dec-05 02:47 106 1 gusting 10 4.4
2019-Dec-05 02:30 161 2 gusting 11 4.4
2019-Dec-05 02:17 136 3 gusting 10 4.4
2019-Dec-05 01:46 183 2 gusting 11 3.9
2019-Dec-05 01:30 117 3 gusting 10 3.9
2019-Dec-05 01:17 153 3 gusting 9 3.9
2019-Dec-05 00:46 153 1 gusting 10 4.4
2019-Dec-05 00:31 142 1 gusting 9 4.4
2019-Dec-05 00:19 186 2 gusting 8 4.4
2019-Dec-04 23:47 134 2 gusting 10 4.4
2019-Dec-04 23:32 146 1 gusting 7 4.4
2019-Dec-04 23:17 134 1 gusting 6 5.0
2019-Dec-04 22:45 116 1 gusting 6 5.0
2019-Dec-04 22:16 144 3 gusting 11 5.6
2019-Dec-04 21:45 144 5.6
2019-Dec-04 21:31 134 1 gusting 8 5.6
2019-Dec-04 21:16 123 0 gusting 7 5.6
2019-Dec-04 20:45 179 5.6
2019-Dec-04 20:34 137 0 gusting 7 5.6
2019-Dec-04 19:45 157 5.6
2019-Dec-04 19:32 124 0 gusting 10 5.6
2019-Dec-04 19:16 142 1 gusting 8 5.6
2019-Dec-04 18:46 168 0 gusting 10 5.6
2019-Dec-04 18:32 140 1 gusting 10 5.6
2019-Dec-04 18:15 143 4 gusting 13 5.6
2019-Dec-04 17:45 161 1 gusting 6 5.6
2019-Dec-04 17:34 184 1 gusting 6 5.6
2019-Dec-04 17:17 136 1 gusting 8 5.6
2019-Dec-04 16:47 138 1 gusting 6 5.6
2019-Dec-04 16:32 155 1 gusting 10 5.6
2019-Dec-04 16:16 182 0 gusting 9 5.6
2019-Dec-04 16:00 171 1 gusting 6 5.6
2019-Dec-04 15:47 150 2 gusting 9 5.6
2019-Dec-04 15:32 147 0 gusting 10 5.6
2019-Dec-04 15:16 136 0 gusting 7 5.6